Regional Weather Roundup
Issued by NWS Kansas City/Pleasant Hill, MO

Home | Current Version | Previous Version | Text Only | Print | Product List | Glossary Off
Versions: 1 2 3 4 5 6 7 8 9 10 11 12 13 14 15 16 17 18 19 20 21 22 23 24 25 26 27 28 29 30 31 32 33 34 35 36 37 38 39 40 41 42 43 44 45 46 47 48 49 50

000
ASUS43 KEAX 300911
RWREAX

WEATHER ROUNDUP FOR EASTERN KANSAS AND NORTHWEST MISSOURI
NATIONAL WEATHER SERVICE KANSAS CITY/PLEASANT HILL MO
400 AM CDT TUE JUN 30 2015

KSZ040-057-103>105-MOZ028-029-037-043-301000-
...KANSAS CITY METROPOLITAN AREA...

CITY           SKY/WX    TMP DP  RH WIND       PRES   REMARKS
K.C. INTL      PTCLDY    68  65  90 SW8       29.92S
K.C. DOWNTOWN  CLEAR     72  67  84 CALM      29.91S
LEES SUMMIT    CLEAR     68  63  84 SW5       29.93S
OLATHE - IXD   CLEAR     70  63  78 W5        29.94F
OLATHE - OJC   CLEAR     69  64  84 W3        29.93S
LAWRENCE       PTCLDY    65  63  93 NW3       29.93S

$$

MOZ001>008-011>017-020>025-030>033-038>040-044>046-053-054-301000-
...NORTHERN AND CENTRAL MISSOURI...

CITY           SKY/WX    TMP DP  RH WIND       PRES   REMARKS
ST. JOSEPH     PTCLDY    67  66  97 CALM      29.92R FOG
MOSBY          SUNNY     66  66 100 CALM      29.91S
HARRISONVILLE  CLEAR     68  66  94 CALM      29.95F
WARRENSBURG    CLEAR     68  64  88 CALM      29.91S
WHITEMAN AFB   CLEAR     69  65  87 W5        29.90S
CLINTON        CLEAR     72  68  88 CALM      29.92S
SEDALIA        PTCLDY    72  64  76 W6        29.92S
WARSAW         FAIR      68  68 100 CALM      29.92F
CHILLICOTHE      N/A     66  64  93 CALM      29.91S
KIRKSVILLE     CLEAR     66  63  90 SW5       29.89S

$$

MOZ041-047>049-056>058-063>065-088>090-097-301000-
...EASTERN AND SOUTHERN MISSOURI...

CITY           SKY/WX    TMP DP  RH WIND       PRES   REMARKS
ST. LOUIS INTL CLEAR     72  66  81 CALM      29.87S
SPIRIT OF STL  CLEAR     67  67 100 CALM      29.86S
COLUMBIA       CLEAR     69  66  90 W5        29.90S
JEFFERSON CITY PTCLDY    68  66  93 CALM      29.89S
MEXICO         CLEAR    N/A N/A N/A W5        29.89S
ROLLA          CLEAR     65  64  97 SW5       29.90S
OSAGE BEACH    MOCLDY    66  64  94 CALM      29.92R
SPRINGFIELD    CLEAR     69  62  78 W5        29.95S
BRANSON        CLOUDY    68  63  83 CALM      29.97S
NEVADA         CLEAR     70  64  83 SW5       29.95S
JOPLIN         CLEAR     66  63  90 CALM      29.96S
WEST PLAINS    CLEAR     67  64  90 W3        29.95F
MALDEN         CLEAR     73  68  83 CALM      29.88S

$$

IAZ060-094-KSZ022-034>040-054-083-096-NEZ052-066-093-301000-
...KANSAS...SOUTHEAST NEBRASKA AND IOWA...

CITY           SKY/WX    TMP DP  RH WIND       PRES   REMARKS
TOPEKA         CLEAR     68  65  90 CALM      29.93F
MANHATTAN      CLEAR     64  62  93 CALM      29.95F
EMPORIA        CLOUDY    68  60  75 W6        29.96F
CHANUTE        CLEAR     66  63  90 SW3       29.96S
WICHITA        PTCLDY    69  59  70 CALM      29.97F
OMAHA          CLOUDY    68  64  87 SE3       29.90F
LINCOLN        PTCLDY    67  62  84 CALM      29.93F
FALLS CITY     CLOUDY    66  63  90 CALM      29.91F
LAMONI         PTCLDY    67  62  84 W7        29.89S
DES MOINES     CLOUDY    68  62  81 W6        29.86S

$$




USA.gov is the U.S. government's official web portal to all federal, state and local government web resources and services.